Tracking 25195 objects as of 19-Jan-2022
HD Live streaming from Space Station
objects crossing your sky now

FLOCK 4P 1

Track FLOCK 4P 1 now!
10-day predictions
FLOCK 4P 1 is classified as:


NORAD ID: 44814
Int'l Code: 2019-081L
Perigee: 495.9 km
Apogee: 512.0 km
Inclination: 97.4 °
Period: 94.6 minutes
Semi major axis: 6874 km
RCS: Unknown
Launch date: November 27, 2019
Source: United States (US)
Launch site: SRIHARIKOTA (SRI)
aabbcc
Your satellite tracking list
Your tracking list is empty




NASA's NSSDC Master Catalog

Two Line Element Set (TLE):
1 44814U 19081L   22018.19633438  .00003409  00000-0  14783-3 0  9992
2 44814  97.4250  84.8043 0011708  31.3558 328.8374 15.22986759119009
Source of the keplerian elements: AFSPC